K5TWC Weather Reports


time (UTC)temp
F
wind
direction
speed
knots
gust
knots
rain 1hr
in
rain 24hr
in
rain mn
in
humidity
%
barometer
mb
20260507190018 70 360 3.5 7.0 0.00 0.10 0.00 58 1017.7
20260507185508 71 66 0.0 6.1 0.00 0.10 0.00 57 1017.7
20260507185007 70 360 0.9 8.7 0.00 0.10 0.00 60 1017.7
20260507184518 70 329 0.9 8.7 0.00 0.11 0.00 59 1017.7
20260507184013 70 101 0.9 9.6 0.00 0.11 0.00 59 1017.8
20260507183510 70 35 1.7 9.6 0.00 0.11 0.00 59 1017.9
20260507183024 70 25 1.7 7.8 0.00 0.11 0.00 59 1017.8
20260507182509 70 39 0.9 7.8 0.00 0.12 0.00 59 1017.9
20260507182010 70 26 1.7 7.0 0.00 0.12 0.00 60 1018.0
20260507181526 69 53 0.0 7.8 0.00 0.13 0.00 61 1018.1
20260507181006 69 328 1.7 7.8 0.00 0.13 0.00 60 1018.3
20260507180506 69 59 1.7 8.7 0.00 0.13 0.00 59 1018.4
20260507180016 69 92 2.6 8.7 0.00 0.14 0.00 59 1018.3
20260507175503 69 101 1.7 7.0 0.00 0.14 0.00 59 1018.6
20260507175006 68 36 0.0 7.8 0.00 0.15 0.00 61 1018.6
20260507174532 68 319 0.9 9.6 0.00 0.15 0.00 60 1018.5
20260507174008 68 324 0.9 9.6 0.00 0.16 0.00 60 1018.6
20260507173509 68 344 0.0 7.8 0.00 0.16 0.00 62 1018.8
20260507173024 68 37 1.7 7.8 0.00 0.17 0.00 61 1018.9
20260507172508 68 42 0.9 5.2 0.00 0.17 0.00 61 1019.1
20260507172012 68 355 0.0 7.0 0.00 0.18 0.00 61 1019.4
20260507171528 67 28 0.0 7.0 0.00 0.19 0.00 61 1019.4
20260507171007 68 34 1.7 5.2 0.00 0.19 0.00 61 1019.5
20260507170512 67 328 0.9 5.2 0.00 0.20 0.00 60 1019.6
20260507170039 68 105 0.9 5.2 0.00 0.21 0.00 61 1019.8
20260507165502 67 41 0.9 4.3 0.00 0.22 0.00 62 1019.9
20260507165004 66 75 0.0 4.3 0.00 0.23 0.00 61 1019.9
20260507164514 66 360 0.9 4.3 0.00 0.23 0.00 63 1019.8
20260507164010 66 31 1.7 4.3 0.00 0.25 0.00 61 1020.0
20260507163506 66 67 1.7 5.2 0.00 0.25 0.00 63 1020.0
20260507163021 66 355 0.9 5.2 0.00 0.27 0.00 63 1020.1
20260507162508 66 296 0.9 5.2 0.00 0.28 0.00 64 1020.0
20260507162006 66 330 0.0 5.2 0.00 0.29 0.00 64 1020.0
20260507161523 66 36 0.9 5.2 0.00 0.31 0.00 65 1020.0
20260507161008 65 360 0.9 5.2 0.00 0.32 0.00 65 1020.1
20260507160508 65 56 1.7 5.2 0.00 0.34 0.00 65 1020.1
20260507160025 66 17 0.9 5.2 0.00 0.36 0.00 65 1020.0
20260507155510 65 360 0.0 6.1 0.00 0.38 0.00 66 1020.1
20260507155009 65 360 1.7 6.1 0.00 0.40 0.00 66 1020.1
20260507154528 65 94 0.9 4.3 0.00 0.43 0.00 68 1020.1
20260507154009 65 19 0.9 4.3 0.00 0.46 0.00 68 1020.2
20260507153505 65 71 0.9 4.3 0.00 0.49 0.00 67 1020.2
20260507153020 65 103 0.0 4.3 0.00 0.54 0.00 67 1020.3
20260507152511 64 74 0.9 4.3 0.00 0.54 0.00 69 1020.4
20260507152010 64 59 0.9 4.3 0.00 0.54 0.00 69 1020.4
20260507151523 64 20 0.0 2.6 0.00 0.54 0.00 69 1020.4
20260507151007 64 330 0.0 4.3 0.00 0.54 0.00 70 1020.5
20260507150509 64 352 0.9 4.3 0.00 0.54 0.00 68 1020.6
20260507150031 63 341 0.0 3.5 0.00 0.54 0.00 71 1020.5
20260507145508 63 315 0.0 3.5 0.00 0.54 0.00 71 1020.6
20260507145009 63 277 0.9 4.3 0.00 0.54 0.00 70 1020.6
20260507144525 62 21 0.0 4.3 0.00 0.54 0.00 73 1020.7
20260507144010 62 326 0.0 3.5 0.00 0.54 0.00 74 1020.7
20260507143511 62 352 0.9 3.5 0.00 0.54 0.00 74 1020.7
20260507143028 62 23 0.0 3.5 0.00 0.54 0.00 73 1020.6
20260507142504 62 321 0.9 3.5 0.00 0.54 0.00 74 1020.7
20260507142007 62 338 0.9 3.5 0.00 0.54 0.00 74 1020.7
20260507141518 61 43 0.0 3.5 0.00 0.54 0.00 76 1020.8
20260507141007 60 307 0.0 1.7 0.00 0.54 0.00 78 1020.8
20260507140508 60 307 0.0 0.9 0.00 0.54 0.00 78 1021.0
20260507140023 59 307 0.0 0.9 0.00 0.54 0.00 79 1021.1
20260507135510 59 307 0.0 0.9 0.00 0.54 0.00 79 1021.0
20260507135008 59 307 0.0 0.9 0.00 0.54 0.00 81 1021.0
20260507134526 59 307 0.0 0.9 0.00 0.54 0.00 81 1021.1
20260507134013 58 306 0.0 0.9 0.00 0.54 0.00 84 1021.0
20260507133509 57 306 0.0 1.7 0.00 0.54 0.00 85 1021.0
20260507133026 56 306 0.0 1.7 0.00 0.54 0.00 86 1021.1
20260507132512 56 306 0.0 1.7 0.00 0.54 0.00 87 1021.1
20260507132010 56 306 0.0 1.7 0.00 0.54 0.00 89 1021.0
20260507131535 55 306 0.0 1.7 0.00 0.54 0.00 90 1021.1
20260507131008 55 306 0.0 2.6 0.00 0.54 0.00 91 1021.0
20260507130506 55 304 0.0 2.6 0.00 0.54 0.00 92 1021.0
20260507130011 54 304 0.0 1.7 0.00 0.54 0.00 93 1021.0
20260507125503 54 304 0.0 3.5 0.00 0.54 0.00 92 1020.9
20260507125005 53 303 0.0 3.5 0.00 0.54 0.00 93 1020.8
20260507124509 53 302 0.0 2.6 0.00 0.54 0.00 93 1020.7
20260507124006 53 302 0.0 2.6 0.00 0.54 0.00 93 1020.8
20260507123505 53 302 0.0 1.7 0.00 0.54 0.00 93 1020.8
20260507123008 52 302 0.0 1.7 0.00 0.54 0.00 93 1020.8
20260507122504 52 303 0.0 0.9 0.00 0.54 0.00 93 1020.8
20260507122004 52 303 0.0 0.9 0.00 0.54 0.00 93 1020.7
20260507121512 52 303 0.0 0.0 0.00 0.54 0.00 93 1020.7
20260507121005 52 303 0.0 0.0 0.00 0.54 0.00 93 1020.5
20260507120503 51 302 0.0 0.0 0.00 0.54 0.00 93 1020.4
20260507120023 51 303 0.0 0.0 0.00 0.54 0.00 93 1020.3
20260507115504 51 303 0.0 1.7 0.00 0.54 0.00 92 1020.2
20260507115004 51 303 0.0 1.7 0.00 0.54 0.00 92 1020.1
20260507114511 51 303 0.0 0.0 0.00 0.54 0.00 92 1020.1
20260507114003 51 303 0.0 0.0 0.00 0.54 0.00 92 1020.0
20260507113503 51 303 0.0 0.0 0.00 0.54 0.00 92 1019.9
20260507113006 52 302 0.0 1.7 0.00 0.54 0.00 92 1020.0
20260507112505 52 303 0.0 1.7 0.00 0.54 0.00 92 1020.0
20260507112005 52 303 0.0 2.6 0.00 0.54 0.00 92 1020.1
20260507111509 52 303 0.9 2.6 0.00 0.54 0.00 92 1019.9
20260507111003 52 306 0.0 2.6 0.00 0.54 0.00 92 1019.6
20260507110504 52 11 0.0 1.7 0.00 0.54 0.00 92 1019.5
20260507110012 52 35 0.0 0.0 0.00 0.54 0.00 92 1019.4
20260507105505 52 43 0.0 0.0 0.00 0.54 0.00 92 1019.3
20260507105004 52 44 0.0 0.9 0.00 0.54 0.00 92 1019.2
20260507104513 52 46 0.0 0.9 0.00 0.54 0.00 91 1019.1
20260507104007 52 48 0.0 0.9 0.00 0.54 0.00 91 1018.9
20260507103508 52 48 0.0 0.0 0.00 0.54 0.00 91 1018.9
20260507103010 52 48 0.0 0.0 0.00 0.54 0.00 91 1018.9
20260507102505 52 48 0.0 0.0 0.00 0.54 0.00 90 1018.8
20260507102003 52 48 0.0 0.0 0.00 0.54 0.00 90 1018.7
20260507101504 52 48 0.0 0.0 0.00 0.54 0.00 90 1018.8
20260507101002 53 48 0.0 0.0 0.00 0.54 0.00 89 1018.8
20260507100503 53 48 0.0 0.0 0.00 0.54 0.00 89 1018.7
20260507100012 53 48 0.0 0.0 0.00 0.54 0.00 89 1018.7
20260507095503 53 48 0.0 0.0 0.00 0.54 0.00 89 1018.6
20260507095004 53 48 0.0 0.0 0.00 0.54 0.00 88 1018.5
20260507094514 53 48 0.0 0.0 0.00 0.54 0.00 88 1018.5
20260507094003 54 48 0.0 0.0 0.00 0.54 0.00 88 1018.5
20260507093504 54 48 0.0 0.0 0.00 0.54 0.00 88 1018.4
20260507093014 54 48 0.0 0.0 0.00 0.54 0.00 87 1018.4
20260507092505 54 48 0.0 0.0 0.00 0.54 0.00 87 1018.4
20260507092004 54 48 0.0 0.0 0.00 0.54 0.00 87 1018.4
20260507091516 54 48 0.0 0.0 0.00 0.54 0.00 87 1018.4
20260507091003 54 48 0.0 0.0 0.00 0.54 0.00 87 1018.4
20260507090504 54 48 0.0 1.7 0.00 0.54 0.00 87 1018.5
20260507090009 54 48 0.0 2.6 0.00 0.54 0.00 87 1018.3
20260507085503 54 48 0.0 2.6 0.00 0.54 0.00 87 1018.3
20260507085004 55 49 0.0 1.7 0.00 0.54 0.00 87 1018.1
20260507084514 55 49 0.0 2.6 0.00 0.54 0.00 87 1018.2
20260507084003 55 49 0.0 2.6 0.00 0.54 0.00 87 1018.3
20260507083503 55 50 0.0 1.7 0.00 0.54 0.00 87 1018.2
20260507083016 55 50 0.0 1.7 0.00 0.54 0.00 87 1018.2
20260507082506 55 51 0.0 2.6 0.00 0.54 0.00 87 1018.2
20260507082005 55 51 0.0 3.5 0.00 0.54 0.00 87 1018.2
20260507081532 55 51 0.9 4.3 0.00 0.54 0.00 88 1018.0
20260507081005 55 63 0.9 6.1 0.00 0.54 0.00 88 1017.9
20260507080504 55 42 1.7 6.1 0.00 0.54 0.00 88 1017.9
20260507080015 55 54 0.9 3.5 0.00 0.54 0.00 88 1017.8
20260507075507 55 53 0.0 3.5 0.00 0.54 0.00 88 1017.9
20260507075004 55 38 0.0 3.5 0.00 0.54 0.00 88 1017.9
20260507074517 55 39 0.9 4.3 0.00 0.54 0.00 88 1017.9
20260507074003 55 49 0.9 5.2 0.00 0.54 0.00 88 1017.8
20260507073504 55 42 0.9 5.2 0.00 0.54 0.00 88 1017.8
20260507073014 55 55 0.9 5.2 0.00 0.54 0.00 88 1017.7
20260507072504 55 47 1.7 5.2 0.00 0.54 0.00 88 1017.9
20260507072004 55 44 0.0 3.5 0.00 0.54 0.00 88 1017.9
20260507071517 55 48 0.0 3.5 0.00 0.54 0.00 88 1017.8
20260507071004 55 51 0.9 3.5 0.00 0.54 0.00 88 1017.9
20260507070506 55 55 0.0 3.5 0.00 0.54 0.00 88 1018.0
20260507070020 55 47 0.9 3.5 0.00 0.54 0.00 88 1017.9
20260507065505 55 47 0.0 3.5 0.00 0.54 0.00 88 1017.8
20260507065006 55 51 0.0 3.5 0.00 0.54 0.00 87 1017.8
20260507064517 55 56 0.0 3.5 0.00 0.54 0.00 87 1017.8
20260507064007 55 60 0.0 3.5 0.00 0.54 0.00 87 1017.7
20260507063503 55 74 0.0 3.5 0.00 0.54 0.00 87 1017.7
20260507063018 55 62 0.0 3.5 0.00 0.54 0.00 87 1017.7
20260507062503 55 59 0.0 4.3 0.00 0.54 0.00 86 1017.7
20260507062005 55 54 0.0 4.3 0.00 0.54 0.00 86 1017.6
20260507061516 56 57 0.0 4.3 0.00 0.54 0.00 85 1017.7
20260507061006 56 57 0.0 3.5 0.00 0.54 0.00 85 1017.6
20260507060504 56 59 0.0 3.5 0.00 0.54 0.00 85 1017.5
20260507060018 56 53 0.0 3.5 0.00 0.54 0.00 84 1017.5
20260507055503 56 60 0.0 4.3 0.00 0.54 0.00 84 1017.6
20260507055007 56 66 0.0 6.1 0.00 0.54 0.00 84 1017.6
20260507054520 56 57 0.9 6.1 0.00 0.54 0.00 84 1017.6
20260507054008 57 63 0.0 5.2 0.00 0.54 0.00 83 1017.6
20260507053508 57 61 1.7 6.1 0.00 0.54 0.00 83 1017.6
20260507053020 57 45 0.9 7.8 0.00 0.54 0.00 83 1017.6
20260507052504 57 100 2.6 7.8 0.00 0.54 0.00 82 1017.7
20260507052004 57 92 1.7 5.2 0.00 0.54 0.00 82 1017.7
20260507051512 57 41 0.9 7.8 0.00 0.54 0.00 82 1017.8
20260507051008 57 90 1.7 7.8 0.00 0.54 0.00 82 1017.7
20260507050505 57 64 1.7 5.2 0.00 0.54 0.00 82 1017.7
20260507050026 58 59 1.7 5.2 0.00 0.54 0.00 82 1017.7
20260507045506 58 69 0.9 8.7 0.00 0.54 0.54 82 1017.7
20260507045005 58 98 0.9 8.7 0.00 0.54 0.54 82 1017.6
20260507044520 58 33 2.6 8.7 0.00 0.54 0.54 82 1017.7
20260507044008 58 59 0.0 5.2 0.00 0.54 0.54 82 1017.7
20260507043506 58 60 1.7 5.2 0.00 0.54 0.54 82 1017.7
20260507043018 59 59 1.7 7.0 0.00 0.54 0.54 82 1017.8
20260507042504 59 59 0.9 7.8 0.00 0.54 0.54 82 1018.0
20260507042006 59 30 2.6 8.7 0.00 0.54 0.54 81 1018.1
20260507041522 59 16 3.5 8.7 0.00 0.54 0.54 81 1018.1
20260507041007 59 66 3.5 8.7 0.00 0.54 0.54 81 1018.2
20260507040503 59 50 2.6 8.7 0.00 0.54 0.54 81 1018.2
20260507040013 59 52 2.6 7.8 0.00 0.54 0.54 81 1018.0
20260507035504 59 84 3.5 7.8 0.00 0.54 0.54 81 1018.1
20260507035007 59 63 0.9 9.6 0.00 0.54 0.54 81 1018.1
20260507034520 59 64 4.3 9.6 0.00 0.54 0.54 81 1018.1
20260507034010 59 32 2.6 8.7 0.00 0.54 0.54 81 1018.2
20260507033507 59 54 3.5 10.4 0.00 0.54 0.54 80 1018.1
20260507033022 59 15 2.6 10.4 0.00 0.54 0.54 81 1017.9
20260507032509 59 50 4.3 10.4 0.00 0.54 0.54 81 1017.9
20260507032008 59 77 5.2 10.4 0.00 0.54 0.54 81 1017.9
20260507031522 59 43 2.6 8.7 0.00 0.54 0.54 81 1017.8
20260507031008 59 9 4.3 9.6 0.00 0.54 0.54 81 1017.7
20260507030508 59 35 3.5 9.6 0.00 0.54 0.54 81 1017.6
20260507030019 59 51 3.5 9.6 0.00 0.54 0.54 81 1017.4
20260507025509 59 61 2.6 8.7 0.00 0.54 0.54 82 1017.4
20260507025004 59 84 2.6 7.8 0.00 0.54 0.54 82 1017.2
20260507024516 59 22 1.7 7.0 0.00 0.54 0.54 82 1017.2
20260507024005 59 51 0.9 7.0 0.00 0.54 0.54 82 1017.1
20260507023508 59 76 0.9 8.7 0.00 0.54 0.54 82 1017.0
20260507023020 59 55 2.6 8.7 0.00 0.54 0.54 83 1016.8
20260507022509 59 18 0.9 5.2 0.00 0.54 0.54 83 1016.7
20260507022007 59 63 1.7 7.0 0.00 0.54 0.54 83 1016.7
20260507021524 59 350 0.9 7.8 0.00 0.54 0.54 83 1016.7
20260507021008 59 22 1.7 7.8 0.00 0.54 0.54 82 1016.6
20260507020509 59 50 3.5 7.8 0.00 0.54 0.54 83 1016.5
20260507020022 59 355 2.6 6.1 0.00 0.54 0.54 83 1016.4
20260507015504 59 81 1.7 9.6 0.00 0.54 0.54 84 1016.4
20260507015004 59 37 1.7 11.3 0.00 0.54 0.54 84 1016.3
20260507014518 59 78 5.2 12.2 0.00 0.54 0.54 84 1016.2
20260507014005 59 37 2.6 12.2 0.00 0.54 0.54 84 1015.9
20260507013504 59 42 2.6 9.6 0.00 0.54 0.54 84 1015.9
20260507013017 59 327 3.5 9.6 0.00 0.54 0.54 84 1015.9
20260507012508 59 98 2.6 8.7 0.00 0.54 0.54 84 1015.7
20260507012010 59 51 3.5 7.8 0.00 0.54 0.54 85 1015.7
20260507011522 59 55 3.5 7.8 0.00 0.54 0.54 85 1015.5
20260507011010 59 32 2.6 7.8 0.00 0.54 0.54 85 1015.4
20260507010510 59 61 2.6 8.7 0.00 0.54 0.54 85 1015.3
20260507010024 59 39 1.7 8.7 0.00 0.54 0.54 86 1015.5
20260507005507 59 46 1.7 6.1 0.00 0.54 0.54 86 1015.5
20260507005006 59 360 1.7 6.1 0.00 0.54 0.54 86 1015.5
20260507004516 58 20 1.7 6.1 0.00 0.54 0.54 86 1015.4
20260507004010 58 25 0.9 7.0 0.00 0.54 0.54 86 1015.2
20260507003504 58 27 3.5 7.0 0.00 0.54 0.54 86 1015.2
20260507003014 58 17 2.6 7.0 0.01 0.54 0.54 86 1015.3
20260507002506 58 37 1.7 4.3 0.01 0.54 0.54 86 1015.2
20260507002007 58 59 0.9 6.1 0.01 0.54 0.54 86 1015.1
20260507001525 58 52 1.7 7.8 0.01 0.54 0.54 86 1015.0
20260507001007 58 29 1.7 7.8 0.01 0.54 0.54 85 1015.0
20260507000506 58 64 1.7 7.0 0.01 0.54 0.54 85 1014.9
20260507000032 58 51 2.6 8.7 0.01 0.54 0.54 85 1015.0
20260506235508 58 45 2.6 8.7 0.01 0.54 0.54 85 1015.0
20260506235007 58 70 0.9 8.7 0.01 0.54 0.54 85 1015.0
20260506234524 59 51 1.7 8.7 0.01 0.54 0.54 85 1015.0
20260506234011 59 5 0.9 8.7 0.01 0.54 0.54 84 1015.0
20260506233503 59 321 3.5 8.7 0.02 0.54 0.54 84 1014.9
20260506233012 59 346 1.7 6.1 0.01 0.52 0.52 85 1014.8
20260506232504 59 351 2.6 7.8 0.01 0.52 0.52 84 1014.7
20260506232004 59 320 1.7 7.8 0.01 0.52 0.52 84 1014.6
20260506231517 59 360 1.7 7.8 0.01 0.52 0.52 84 1014.8
20260506231008 59 360 3.5 7.8 0.01 0.52 0.52 84 1014.5
20260506230507 59 9 3.5 9.6 0.02 0.52 0.52 84 1014.5
20260506230023 59 65 3.5 9.6 0.02 0.52 0.52 84 1014.2
20260506225510 58 26 0.9 8.7 0.02 0.52 0.52 84 1014.5
20260506225008 58 360 2.6 8.7 0.02 0.52 0.52 84 1014.7
20260506224524 58 54 0.9 7.0 0.02 0.52 0.52 84 1014.8
20260506224009 58 360 2.6 7.0 0.02 0.52 0.52 84 1014.7
20260506223507 58 22 0.9 7.0 0.01 0.52 0.52 84 1014.5
20260506223024 58 76 2.6 7.0 0.02 0.52 0.52 84 1014.8
20260506222507 58 47 1.7 7.0 0.02 0.52 0.52 84 1014.6
20260506222006 58 41 1.7 7.0 0.02 0.52 0.52 85 1014.5
20260506221513 58 11 0.9 8.7 0.02 0.52 0.52 84 1014.4
20260506221012 58 51 1.7 8.7 0.03 0.52 0.52 84 1014.1
20260506220507 58 68 1.7 7.0 0.02 0.51 0.51 84 1014.1
20260506220022 58 60 2.6 8.7 0.02 0.51 0.51 84 1014.4
20260506215507 58 40 3.5 8.7 0.02 0.51 0.51 83 1014.2
20260506215007 59 339 2.6 7.0 0.02 0.51 0.51 83 1014.3
20260506214521 59 325 2.6 7.8 0.02 0.51 0.51 83 1014.1
20260506214007 59 348 2.6 9.6 0.03 0.51 0.51 82 1014.4
20260506213508 59 281 1.7 9.6 0.03 0.51 0.51 83 1014.1
20260506213025 59 348 2.6 7.8 0.02 0.50 0.50 82 1013.9
20260506212507 59 329 1.7 8.7 0.02 0.50 0.50 83 1014.3
20260506212009 59 313 1.7 8.7 0.03 0.50 0.50 83 1014.3
20260506211527 59 32 1.7 7.8 0.03 0.50 0.50 83 1014.3
20260506211010 59 34 2.6 7.8 0.02 0.49 0.49 83 1014.1
20260506210504 59 330 0.9 7.8 0.02 0.49 0.49 83 1014.2
20260506210015 59 49 2.6 7.8 0.02 0.49 0.49 84 1014.3
20260506205507 59 313 2.6 7.8 0.02 0.49 0.49 84 1014.2
20260506205004 59 333 3.5 8.7 0.02 0.49 0.49 83 1014.3
20260506204524 59 301 3.5 8.7 0.03 0.49 0.49 84 1014.6
20260506204006 58 46 1.7 9.6 0.02 0.48 0.48 84 1014.6
20260506203517 58 311 4.3 9.6 0.02 0.48 0.48 85 1014.5
20260506203022 58 334 2.6 7.0 0.03 0.48 0.48 85 1014.6
20260506202507 58 360 2.6 7.0 0.03 0.48 0.48 86 1014.7
20260506202011 57 306 1.7 6.1 0.02 0.47 0.47 85 1014.9
20260506201526 57 360 2.6 4.3 0.02 0.47 0.47 85 1015.2
20260506201008 57 343 0.9 7.8 0.02 0.47 0.47 85 1015.2
20260506200512 57 61 0.9 7.8 0.02 0.47 0.47 85 1015.2
20260506200026 58 342 1.7 7.8 0.03 0.47 0.47 86 1015.0
20260506195507 57 21 2.6 8.7 0.03 0.47 0.47 87 1014.7
20260506195006 57 328 3.5 8.7 0.03 0.47 0.47 88 1014.6
20260506194518 57 350 3.5 8.7 0.03 0.46 0.46 88 1014.7
20260506194006 56 347 2.6 6.1 0.03 0.46 0.46 88 1015.0
20260506193505 56 40 0.9 4.3 0.03 0.46 0.46 88 1015.0
20260506193019 56 329 0.0 3.5 0.02 0.45 0.45 88 1015.2
20260506192511 56 331 0.0 4.3 0.03 0.45 0.45 88 1015.4
20260506192013 56 324 1.7 7.8 0.03 0.45 0.45 88 1015.4
20260506191524 56 9 1.7 7.8 0.04 0.45 0.45 88 1015.3
20260506191007 56 314 1.7 7.8 0.04 0.45 0.45 88 1015.4
20260506190508 56 317 1.7 7.0 0.04 0.45 0.45 88 1015.3